Preview of NWS' New Version of Forecast
This preview is not operational and should not be used for support decisions.

Regional Weather Roundup (RWR)

Issued by National Weather Service (NWS)

                            
000
ASUS44 KJAN 202010
RWRMS 

MISSISSIPPI HOURLY WEATHER ROUNDUP
NATIONAL WEATHER SERVICE JACKSON MS
200 PM CST WED FEB 20 2019

NOTE: "FAIR: INDICATES FEW OR NO CLOUDS BELOW 12,000 FEET WITH NO
SIGNIFICANT WEATHER AND/OR OBSTRUCTIONS TO VISIBILITY.

MSZ001>002-007>008-010>013-018>021-025>028-034>036-202100-
NORTHWEST MISSISSIPPI
  
CITY           SKY/WX    TMP DP  RH WIND       PRES   REMARKS
BATESVILLE     CLOUDY    50  46  87 W10       29.91R                  
CLARKSDALE     CLOUDY    52  48  87 W12       29.93S                  
CLEVELAND      CLOUDY    50  46  86 W6        29.94R                  
GREENWOOD      CLOUDY    51  46  83 W7        29.92F                  
GREENVILLE     CLOUDY    50  43  77 W9        29.94S                  
OLIVE BRANCH   CLOUDY    45  45 100 W6G14     29.90R                  
OXFORD         CLOUDY    46  46 100 W7        29.92R                  
TUNICA           N/A     46  43  87 W8        29.93S                  
WINONA         CLOUDY    50  48  92 NW7       29.90F                  
$$

MSZ003>006-009-014>017-022>024-029>033-037>039-202100-
NORTHEAST MISSISSIPPI
  
CITY           SKY/WX    TMP DP  RH WIND       PRES   REMARKS
ABERDEEN       MOCLDY    59  59 100 S9G16     29.87F                  
COLUMBUS AFB   CLOUDY    59  58  95 SE9       29.86F                  
CORINTH        DRIZZLE   59  57  94 SW7       29.84R                  
GOLDN TRIANGLE CLOUDY    59  58  96 SE9       29.87F                  
STARKVILLE     CLOUDY    59  59 100 S6        29.87S                  
TUPELO         LGT RAIN  59  57  93 SW7       29.85R FOG              
$$

MSZ040-058-202100-
CENTRAL MISSISSIPPI
  
CITY           SKY/WX    TMP DP  RH WIND       PRES   REMARKS
JACKSON INTL   CLOUDY    54  50  86 NW8       29.93S                  
JACKSON HAWKNS CLOUDY    53  50  89 NW7       29.93S                  
MADISON        CLOUDY    50  50 100 W7        29.93S                  
MERIDIAN KEY   CLOUDY    66  61  84 W6        29.89R HAZE             
MERIDIAN NAS   LGT RAIN  64  63  96 S5        29.89S                  
RAYMOND          N/A     52  52 100 NW6       29.94F                  
VICKSBURG VKS  CLOUDY    52  46  82 VRB3      29.95F                  
$$

MSZ059>079-202100-
SOUTH MISSISSIPPI
  
CITY           SKY/WX    TMP DP  RH WIND       PRES   REMARKS
HATTIESBURG    LGT RAIN  70  68  93 W12       29.88S FOG              
LAUREL         CLOUDY    64  63  96 W7        29.89S                  
MCCOMB         CLOUDY    61  55  81 NW12      29.91S                  
NATCHEZ        CLOUDY    52  47  83 N5        29.95F                  
PINE BELT      CLOUDY    63  63 100 VRB5      29.90S                  
$$

MSZ080>082-202100-
COASTAL MISSISSIPPI
  
CITY           SKY/WX    TMP DP  RH WIND       PRES   REMARKS
BAY ST LOUIS   CLOUDY    77  73  88 S9G18     29.89F FOG              
BILOXI         FOG       66  66 100 S10       29.90F VSB 5/8          
PASCAGOULA     CLOUDY    75  70  84 S13G21    29.90F                  
GULFPORT       FOG       69  69 100 S10G20    29.89F VSB 1            
$$

LAZ007>009-015>016-023>026-202100-
NORTHEAST LOUISIANA
  
CITY           SKY/WX    TMP DP  RH WIND       PRES   REMARKS
BASTROP        CLOUDY    52  45  76 W5        29.96F                  
TALLULAH/VBURG CLOUDY    52  45  77 NW6       29.95F                  
VIDALIA        CLOUDY    53  47  78 NE6       29.95F                  
$$